Location: *
(38.4303°S, 157.0822°W)
Time: 13:52:11
(UTC+00:00)

Cosmos 2360 Rocket - Pass Details

Date: 21 May 2024
Orbit: 832 x 846 km, 71.0° (Epoch: 14 June)

Event Time Altitude Azimuth Distance (km) Brightness Sun altitude
Rises 16:30:54 0° 312° (NW) 3,393 5.0 -11.4°
Reaches altitude 10° 16:33:35 10° 303° (WNW) 2,463 4.3 -10.9°
Maximum altitude 16:38:38 33° 239° (WSW) 1,398 2.8 -10.0°
Drops below altitude 10° 16:43:44 10° 176° (S) 2,479 4.5 -9.0°
Sets 16:46:27 0° 166° (SSE) 3,418 5.3 -8.5°
